Flag for U.S.A. Weather past 2 weeks in Chula Vista, California, U.S.A.

Now
50 °F

Clear.


Feels Like: 50 °F
Forecast: 43 / 62 °F
Wind: No wind

Location: Brown Field Municipal Airport

Current Time: Dec 28, 2014 at 9:30:35 PM

Latest Report: Dec 28, 2014 at 8:53 PM


Visibility: 10 mi

Pressure: 30.21 "Hg

Humidity: 57%

Dew point: 35 °F

Location of Chula VistaLocation

Historic Weather in Chula Vista — Graph

°F

Chula Vista temperature yesterday

Maximum temperature yesterday: 62 °F (at 1:53 PM)
Minimum temperature yesterday: 43 °F (at 3:53 AM)
Average temperature yesterday: 51 °F

Past Weeks' High & Low Weather Summary

 TemperatureHumidityPressure
High79 °F (Dec 23, 11:53 AM)97% (Dec 17, 7:53 AM)30.32 "Hg (Dec 17, 7:53 AM)
Low37 °F (Dec 28, 3:53 AM)13% (Dec 26, 1:53 PM)29.79 "Hg (Dec 25, 1:53 PM)
Average56 °F64%30.07 "Hg
* Reported Dec 13 7:53 PM — Dec 28 7:53 PM, Chula Vista, Weather by CustomWeather, © 2014

Note: Actual official high and low records may vary slightly from our data, if they occured in-between our weather recording intervals... More about our weather records

Advertising

Chula Vista weather history for previous 24 hours

 ConditionsComfort  
Time TempWeatherWind HumidityBarometerVisibility
7:53 PM
Dec 28
49 °FClear.5 mph61%30.20 "Hg10 mi
6:53 PM51 °FClear.No wind63%30.21 "Hg10 mi
5:53 PM53 °FClear.3 mph61%30.19 "Hg10 mi
4:53 PM54 °FClear.6 mph53%30.17 "Hg10 mi
3:53 PM58 °FSunny.9 mph44%30.16 "Hg10 mi
2:53 PM59 °FSunny.8 mph41%30.16 "Hg10 mi
1:53 PM61 °FSunny.3 mph27%30.18 "Hg10 mi
12:53 PM61 °FSunny.6 mph26%30.19 "Hg10 mi
11:53 AM59 °FSunny.3 mph18%30.22 "Hg10 mi
10:53 AM54 °FSunny.5 mph24%30.25 "Hg10 mi
9:53 AM51 °FSunny.8 mph26%30.27 "Hg10 mi
8:53 AM50 °FSunny.9 mph27%30.27 "Hg10 mi
7:53 AM44 °FSunny.8 mph37%30.26 "Hg10 mi
6:53 AM37 °FSunny.7 mph48%30.26 "Hg10 mi
5:53 AM38 °FClear.8 mph45%30.24 "Hg10 mi
4:53 AM41 °FClear.7 mph38%30.24 "Hg10 mi
3:53 AM37 °FClear.6 mph48%30.25 "Hg10 mi
2:53 AM38 °FClear.7 mph60%30.27 "Hg10 mi
1:53 AM41 °FClear.No wind45%30.28 "Hg10 mi
12:53 AM43 °FClear.3 mph43%30.28 "Hg10 mi
11:53 PM
Dec 27
44 °FClear.No wind43%30.29 "Hg10 mi
10:53 PM45 °FClear.3 mph45%30.30 "Hg10 mi
9:53 PM44 °FClear.3 mph47%30.31 "Hg10 mi
Weather by CustomWeather, © 2014

See weather overviewHow to use our weather pages